Portada
METAR-TAF:

METAR-TAF

Aeroports :

Kulusuk, Grenlàndia

latitud: 65-35N, longitud: 037-09W, altitud: 35 m

Observació

L'informe es va fer fa 9 hores i 11 minuts, a les 00:50 UTC
Vent 3 kt del Oest/Sud-Oest
Temperatura -1°C
Humitat 93%
Pressió 1011 hPa
Visibilitat 10 km o més
neu

METAR: BGKK 220050Z AUTO 25003KT 9999NDV -SN OVC031/// M01/M02 Q1011

Hora: 07:01 (10:01 UTC)

Pronòstic

L'informe es va fer fa 17 hores i 45 minuts, a les 16:16 UTC
Pronòstic vàlid del 21 a les 15 UTC al 21 a les 24 UTC
Vent 8 kt amb direcció variable
Visibilitat 10 km o més
Escasses núvols a una alçada de 1400 ft
Cel ennuvolat a una alçada de 7000 ft
Temporalment
l' 21 a les 15 UTC al 21 a les 20 UTC
Vent 15 kt del Est/Nord-Est amb ràfegues de 25 kt
Visibilitat: 2000 m
Cel ennuvolat a una alçada de 1400 ft
neu

TAF: BGKK 211616Z 2115/2124 VRB08KT 9999 FEW014 BKN070 TEMPO 2115/2120 07015G25KT 2000 -SN BKN014

Observacions i pronòstics meteorològics de més de 4000 aeroports (METAR i TAF).

Les estacions disponibles són els punts grocs i vermells al mapa.

Posi el ratolí al punt desitjat per veure el nom de l'estació.

Feu clic per veure les observacions i els pronòstics meteorològics.

Per canviar el mapa: feu clic els botons verds amb una creu de color negre per apropar; al botó verd amb un guió per allunyar la imatge; o en les fletxes verdes per a mapes adjacents.


METAR-TAF: